Location: *
(41.0833°N, 73.4167°W)
Time: 06:53:26
(UTC+00:00)

Cosmos 1295 Rocket - Pass Details

Date: 22 October 2019
Orbit: 944 x 994 km, 82.9° (Epoch: 19 November)

Event Time Altitude Azimuth Distance (km) Brightness Sun altitude
Rises 09:42:49 0° 193° (SSW) 3,644 7.4 -17.6°
Reaches altitude 10° 09:45:20 10° 195° (SSW) 2,694 6.7 -17.1°
Maximum altitude 09:51:28 69° 279° (W) 1,021 4.4 -16.0°
Drops below altitude 10° 09:57:35 10° 3° (N) 2,681 6.8 -14.8°
Sets 10:00:06 0° 6° (N) 3,626 7.5 -14.4°
